Year,Month,Day,Hour,Minute,Value (Times are PST for windgust in km/hr)
2015,08,14,00,00,1.60
2015,08,14,00,03,4.80
2015,08,14,00,07,1.60
2015,08,14,00,13,1.60
2015,08,14,00,40,1.60
2015,08,14,00,50,1.60
2015,08,14,00,54,3.20
2015,08,14,00,55,4.80
2015,08,14,00,56,6.40
2015,08,14,00,57,6.40
2015,08,14,00,58,3.20
2015,08,14,01,36,1.60
2015,08,14,01,57,1.60
2015,08,14,02,24,1.60
2015,08,14,02,25,4.80
2015,08,14,02,26,6.40
2015,08,14,02,27,8.10
2015,08,14,02,28,9.60
2015,08,14,02,29,4.80
2015,08,14,02,30,8.10
2015,08,14,02,31,8.10
2015,08,14,02,32,6.40
2015,08,14,02,33,4.80
2015,08,14,02,40,1.60
2015,08,14,02,51,1.60
2015,08,14,02,54,3.20
2015,08,14,02,55,4.80
2015,08,14,02,58,1.60
2015,08,14,03,07,1.60
2015,08,14,03,08,11.30
2015,08,14,03,09,14.50
2015,08,14,03,10,14.50
2015,08,14,03,11,20.90
2015,08,14,03,12,20.90
2015,08,14,03,13,16.10
2015,08,14,03,14,11.30
2015,08,14,03,15,14.50
2015,08,14,03,16,9.60
2015,08,14,03,17,6.40
2015,08,14,03,18,6.40
2015,08,14,03,19,6.40
2015,08,14,03,20,3.20
2015,08,14,03,21,3.20
2015,08,14,03,32,1.60
2015,08,14,03,44,1.60
2015,08,14,03,45,4.80
2015,08,14,03,46,6.40
2015,08,14,03,47,3.20
2015,08,14,03,49,8.10
2015,08,14,03,50,9.60
2015,08,14,03,51,14.50
2015,08,14,03,52,16.10
2015,08,14,03,53,9.60
2015,08,14,03,54,11.30
2015,08,14,03,55,11.30
2015,08,14,03,56,14.50
2015,08,14,03,57,14.50
2015,08,14,03,58,14.50
2015,08,14,03,59,9.60
2015,08,14,04,00,4.80
2015,08,14,04,01,8.10
2015,08,14,04,02,8.10
2015,08,14,04,03,6.40
2015,08,14,04,04,4.80
2015,08,14,04,08,1.60
2015,08,14,04,12,4.80
2015,08,14,04,13,6.40
2015,08,14,04,14,4.80
2015,08,14,04,15,4.80
2015,08,14,04,16,4.80
2015,08,14,04,17,6.40
2015,08,14,04,18,6.40
2015,08,14,04,19,6.40
2015,08,14,04,20,8.10
2015,08,14,04,21,8.10
2015,08,14,04,22,8.10
2015,08,14,04,23,9.60
2015,08,14,04,24,11.30
2015,08,14,04,25,8.10
2015,08,14,04,26,6.40
2015,08,14,04,27,4.80
2015,08,14,04,34,3.20
2015,08,14,04,38,4.80
2015,08,14,04,41,1.60
2015,08,14,04,45,1.60
2015,08,14,04,46,6.40
2015,08,14,04,47,6.40
2015,08,14,04,48,4.80
2015,08,14,04,56,1.60
2015,08,14,04,59,4.80
2015,08,14,05,00,6.40
2015,08,14,05,01,8.10
2015,08,14,05,02,11.30
2015,08,14,05,03,11.30
2015,08,14,05,04,9.60
2015,08,14,05,05,14.50
2015,08,14,05,06,16.10
2015,08,14,05,07,14.50
2015,08,14,05,08,8.10
2015,08,14,05,09,3.20
2015,08,14,05,10,4.80
2015,08,14,05,11,6.40
2015,08,14,05,12,4.80
2015,08,14,05,13,6.40
2015,08,14,05,14,4.80
2015,08,14,05,21,8.10
2015,08,14,05,22,9.60
2015,08,14,05,23,11.30
2015,08,14,05,24,9.60
2015,08,14,05,25,8.10
2015,08,14,05,26,11.30
2015,08,14,05,27,9.60
2015,08,14,05,28,8.10
2015,08,14,05,29,9.60
2015,08,14,05,30,14.50
2015,08,14,05,31,11.30
2015,08,14,05,32,8.10
2015,08,14,05,33,9.60
2015,08,14,05,34,6.40
2015,08,14,05,35,6.40
2015,08,14,05,36,6.40
2015,08,14,05,37,8.10
2015,08,14,05,38,8.10
2015,08,14,05,39,12.90
2015,08,14,05,40,3.20
2015,08,14,05,44,1.60
2015,08,14,05,46,4.80
2015,08,14,05,47,6.40
2015,08,14,05,48,4.80
2015,08,14,05,53,1.60
2015,08,14,05,55,9.60
2015,08,14,05,56,11.30
2015,08,14,05,57,9.60
2015,08,14,05,58,8.10
2015,08,14,05,59,6.40
2015,08,14,06,00,3.20
2015,08,14,06,01,6.40
2015,08,14,06,02,9.60
2015,08,14,06,03,14.50
2015,08,14,06,04,9.60
2015,08,14,06,05,14.50
2015,08,14,06,06,9.60
2015,08,14,06,07,14.50
2015,08,14,06,08,16.10
2015,08,14,06,09,17.70
2015,08,14,06,10,11.30
2015,08,14,06,11,24.20
2015,08,14,06,12,14.50
2015,08,14,06,13,12.90
2015,08,14,06,14,14.50
2015,08,14,06,15,17.70
2015,08,14,06,16,25.70
2015,08,14,06,17,22.50
2015,08,14,06,18,32.20
2015,08,14,06,19,24.20
2015,08,14,06,20,17.70
2015,08,14,06,21,16.10
2015,08,14,06,22,14.50
2015,08,14,06,23,12.90
2015,08,14,06,24,8.10
2015,08,14,06,25,3.20
2015,08,14,06,26,1.60
2015,08,14,06,27,4.80
2015,08,14,06,29,4.80
2015,08,14,06,30,9.60
2015,08,14,06,31,4.80
2015,08,14,06,36,11.30
2015,08,14,06,37,11.30
2015,08,14,06,38,8.10
2015,08,14,06,39,6.40
2015,08,14,06,40,1.60
2015,08,14,06,43,1.60
2015,08,14,06,45,9.60
2015,08,14,06,46,4.80
2015,08,14,06,47,6.40
2015,08,14,06,48,8.10
2015,08,14,06,49,8.10
2015,08,14,06,50,8.10
2015,08,14,06,51,6.40
2015,08,14,06,52,4.80
2015,08,14,06,54,4.80
2015,08,14,06,55,4.80
2015,08,14,06,56,8.10
2015,08,14,06,57,4.80
2015,08,14,06,58,8.10
2015,08,14,06,59,8.10
2015,08,14,07,00,6.40
2015,08,14,07,01,4.80
2015,08,14,07,02,4.80
2015,08,14,07,03,4.80
2015,08,14,07,04,4.80
2015,08,14,07,13,1.60
2015,08,14,07,17,8.10
2015,08,14,07,18,8.10
2015,08,14,07,19,9.60
2015,08,14,07,20,9.60
2015,08,14,07,21,9.60
2015,08,14,07,22,9.60
2015,08,14,07,23,8.10
2015,08,14,07,24,8.10
2015,08,14,07,34,1.60
2015,08,14,07,53,4.80
2015,08,14,07,54,4.80
2015,08,14,07,55,4.80
2015,08,14,07,56,4.80
2015,08,14,08,03,4.80
2015,08,14,08,04,4.80
2015,08,14,08,05,9.60
2015,08,14,08,06,9.60
2015,08,14,08,07,20.90
2015,08,14,08,08,14.50
2015,08,14,08,09,8.10
2015,08,14,08,10,6.40
2015,08,14,08,11,8.10
2015,08,14,08,12,12.90
2015,08,14,08,13,14.50
2015,08,14,08,14,17.70
2015,08,14,08,15,17.70
2015,08,14,08,16,8.10
2015,08,14,08,22,4.80
2015,08,14,08,23,6.40
2015,08,14,08,24,4.80
2015,08,14,08,25,6.40
2015,08,14,08,26,1.60
2015,08,14,08,29,1.60
2015,08,14,08,31,4.80
2015,08,14,08,32,3.20
2015,08,14,08,33,1.60
2015,08,14,08,47,3.20
2015,08,14,08,48,4.80
2015,08,14,08,54,3.20
2015,08,14,08,55,8.10
2015,08,14,08,56,8.10
2015,08,14,08,57,6.40
2015,08,14,08,58,4.80
2015,08,14,08,59,8.10
2015,08,14,09,00,8.10
2015,08,14,09,01,9.60
2015,08,14,09,02,8.10
2015,08,14,09,03,6.40
2015,08,14,09,04,8.10
2015,08,14,09,05,11.30
2015,08,14,09,06,11.30
2015,08,14,09,07,11.30
2015,08,14,09,08,6.40
2015,08,14,09,09,9.60
2015,08,14,09,10,11.30
2015,08,14,09,11,9.60
2015,08,14,09,12,8.10
2015,08,14,09,13,6.40
2015,08,14,09,14,8.10
2015,08,14,09,15,6.40
2015,08,14,09,16,8.10
2015,08,14,09,17,8.10
2015,08,14,09,18,8.10
2015,08,14,09,19,4.80
2015,08,14,09,20,8.10
2015,08,14,09,21,8.10
2015,08,14,09,22,9.60
2015,08,14,09,23,11.30
2015,08,14,09,24,11.30
2015,08,14,09,25,16.10
2015,08,14,09,26,12.90
2015,08,14,09,27,8.10
2015,08,14,09,28,9.60
2015,08,14,09,29,11.30
2015,08,14,09,30,14.50
2015,08,14,09,31,8.10
2015,08,14,09,32,9.60
2015,08,14,09,33,8.10
2015,08,14,09,34,8.10
2015,08,14,09,35,9.60
2015,08,14,09,36,11.30
2015,08,14,09,37,12.90
2015,08,14,09,38,9.60
2015,08,14,09,39,8.10
2015,08,14,09,40,8.10
2015,08,14,09,41,9.60
2015,08,14,09,42,6.40
2015,08,14,09,43,9.60
2015,08,14,09,44,6.40
2015,08,14,09,45,6.40
2015,08,14,09,46,6.40
2015,08,14,09,47,6.40
2015,08,14,09,48,1.60
2015,08,14,09,49,4.80
2015,08,14,09,50,9.60
2015,08,14,09,51,8.10
2015,08,14,09,52,6.40
2015,08,14,09,53,9.60
2015,08,14,09,54,6.40
2015,08,14,09,55,9.60
2015,08,14,09,56,16.10
2015,08,14,09,57,8.10
2015,08,14,09,58,3.20
2015,08,14,09,59,6.40
2015,08,14,10,00,9.60
2015,08,14,10,01,6.40
2015,08,14,10,02,4.80
2015,08,14,10,03,6.40
2015,08,14,10,04,9.60
2015,08,14,10,05,8.10
2015,08,14,10,06,4.80
2015,08,14,10,10,1.60
2015,08,14,10,12,4.80
2015,08,14,10,13,4.80
2015,08,14,10,15,8.10
2015,08,14,10,28,1.60
2015,08,14,10,30,4.80
2015,08,14,10,34,1.60
2015,08,14,10,35,1.60
2015,08,14,10,38,1.60
2015,08,14,10,44,1.60
2015,08,14,10,46,4.80
2015,08,14,10,47,11.30
2015,08,14,10,48,14.50
2015,08,14,10,49,9.60
2015,08,14,10,50,4.80
2015,08,14,10,58,1.60
2015,08,14,11,03,4.80
2015,08,14,11,04,6.40
2015,08,14,11,05,6.40
2015,08,14,11,06,4.80
2015,08,14,11,07,8.10
2015,08,14,11,08,8.10
2015,08,14,11,10,1.60
2015,08,14,11,11,6.40
2015,08,14,11,12,6.40
2015,08,14,11,13,6.40
2015,08,14,11,14,6.40
2015,08,14,11,15,6.40
2015,08,14,11,16,8.10
2015,08,14,11,17,11.30
2015,08,14,11,18,9.60
2015,08,14,11,19,9.60
2015,08,14,11,20,9.60
2015,08,14,11,21,11.30
2015,08,14,11,22,9.60
2015,08,14,11,23,8.10
2015,08,14,11,24,6.40
2015,08,14,11,25,11.30
2015,08,14,11,26,14.50
2015,08,14,11,27,12.90
2015,08,14,11,28,14.50
2015,08,14,11,29,12.90
2015,08,14,11,30,11.30
2015,08,14,11,31,14.50
2015,08,14,11,32,12.90
2015,08,14,11,33,6.40
2015,08,14,11,34,8.10
2015,08,14,11,35,6.40
2015,08,14,11,36,14.50
2015,08,14,11,37,8.10
2015,08,14,11,38,8.10
2015,08,14,11,39,8.10
2015,08,14,11,40,6.40
2015,08,14,11,42,4.80
2015,08,14,11,43,4.80
2015,08,14,11,44,3.20
2015,08,14,11,45,3.20
2015,08,14,11,46,3.20
2015,08,14,11,47,4.80
2015,08,14,11,49,6.40
2015,08,14,11,50,8.10
2015,08,14,11,51,6.40
2015,08,14,11,52,11.30
2015,08,14,11,53,9.60
2015,08,14,11,54,11.30
2015,08,14,11,55,11.30
2015,08,14,11,56,17.70
2015,08,14,11,57,19.30
2015,08,14,11,58,9.60
2015,08,14,11,59,8.10
2015,08,14,12,00,6.40
2015,08,14,12,01,6.40
2015,08,14,12,02,1.60
2015,08,14,12,04,6.40
2015,08,14,12,05,8.10
2015,08,14,12,06,6.40
2015,08,14,12,07,9.60
2015,08,14,12,08,17.70
2015,08,14,12,09,14.50
2015,08,14,12,10,9.60
2015,08,14,12,11,17.70
2015,08,14,12,12,20.90
2015,08,14,12,13,17.70
2015,08,14,12,14,22.50
2015,08,14,12,15,17.70
2015,08,14,12,16,22.50
2015,08,14,12,17,19.30
2015,08,14,12,18,8.10
2015,08,14,12,19,8.10
2015,08,14,12,20,16.10
2015,08,14,12,21,20.90
2015,08,14,12,22,20.90
2015,08,14,12,23,20.90
2015,08,14,12,24,24.20
2015,08,14,12,25,29.00
2015,08,14,12,26,22.50
2015,08,14,12,27,20.90
2015,08,14,12,28,16.10
2015,08,14,12,29,17.70
2015,08,14,12,30,20.90
2015,08,14,12,31,17.70
2015,08,14,12,32,22.50
2015,08,14,12,33,16.10
2015,08,14,12,34,6.40
2015,08,14,12,35,9.60
2015,08,14,12,36,11.30
2015,08,14,12,37,4.80
2015,08,14,12,38,8.10
2015,08,14,12,39,9.60
2015,08,14,12,40,16.10
2015,08,14,12,41,11.30
2015,08,14,12,42,9.60
2015,08,14,12,43,11.30
2015,08,14,12,44,9.60
2015,08,14,12,45,6.40
2015,08,14,12,46,14.50
2015,08,14,12,47,8.10
2015,08,14,12,48,6.40
2015,08,14,12,49,6.40
2015,08,14,12,50,8.10
2015,08,14,12,51,9.60
2015,08,14,12,52,9.60
2015,08,14,12,53,11.30
2015,08,14,12,54,9.60
2015,08,14,12,55,8.10
2015,08,14,12,56,6.40
2015,08,14,12,57,8.10
2015,08,14,12,58,11.30
2015,08,14,12,59,8.10
2015,08,14,13,00,14.50
2015,08,14,13,01,17.70
2015,08,14,13,02,16.10
2015,08,14,13,03,11.30
2015,08,14,13,04,14.50
2015,08,14,13,05,17.70
2015,08,14,13,06,8.10
2015,08,14,13,07,11.30
2015,08,14,13,08,17.70
2015,08,14,13,09,16.10
2015,08,14,13,10,12.90
2015,08,14,13,11,17.70
2015,08,14,13,12,22.50
2015,08,14,13,13,19.30
2015,08,14,13,14,20.90
2015,08,14,13,15,17.70
2015,08,14,13,16,22.50
2015,08,14,13,17,24.20
2015,08,14,13,18,22.50
2015,08,14,13,19,19.30
2015,08,14,13,20,24.20
2015,08,14,13,21,20.90
2015,08,14,13,22,19.30
2015,08,14,13,23,20.90
2015,08,14,13,24,24.20
2015,08,14,13,25,16.10
2015,08,14,13,26,17.70
2015,08,14,13,27,20.90
2015,08,14,13,28,20.90
2015,08,14,13,29,19.30
2015,08,14,13,30,17.70
2015,08,14,13,31,16.10
2015,08,14,13,32,11.30
2015,08,14,13,33,16.10
2015,08,14,13,34,17.70
2015,08,14,13,35,11.30
2015,08,14,13,36,12.90
2015,08,14,13,37,24.20
2015,08,14,13,38,30.60
2015,08,14,13,39,20.90
2015,08,14,13,40,9.60
2015,08,14,13,41,9.60
2015,08,14,13,42,16.10
2015,08,14,13,43,11.30
2015,08,14,13,44,12.90
2015,08,14,13,45,6.40
2015,08,14,13,46,3.20
2015,08,14,13,47,4.80
2015,08,14,13,48,22.50
2015,08,14,13,49,11.30
2015,08,14,13,50,20.90
2015,08,14,13,51,24.20
2015,08,14,13,52,20.90
2015,08,14,13,53,22.50
2015,08,14,13,54,19.30
2015,08,14,13,55,25.70
2015,08,14,13,56,25.70
2015,08,14,13,57,14.50
2015,08,14,13,58,14.50
2015,08,14,13,59,9.60
2015,08,14,14,00,6.40
2015,08,14,14,01,6.40
2015,08,14,14,02,9.60
2015,08,14,14,03,19.30
2015,08,14,14,04,17.70
2015,08,14,14,05,24.20
2015,08,14,14,06,22.50
2015,08,14,14,07,25.70
2015,08,14,14,08,24.20
2015,08,14,14,09,27.40
2015,08,14,14,10,29.00
2015,08,14,14,11,14.50
2015,08,14,14,12,12.90
2015,08,14,14,13,24.20
2015,08,14,14,14,19.30
2015,08,14,14,15,19.30
2015,08,14,14,16,20.90
2015,08,14,14,17,19.30
2015,08,14,14,18,17.70
2015,08,14,14,19,19.30
2015,08,14,14,20,22.50
2015,08,14,14,21,11.30
2015,08,14,14,22,22.50
2015,08,14,14,23,19.30
2015,08,14,14,24,16.10
2015,08,14,14,25,17.70
2015,08,14,14,26,14.50
2015,08,14,14,27,19.30
2015,08,14,14,28,19.30
2015,08,14,14,29,16.10
2015,08,14,14,30,22.50
2015,08,14,14,31,27.40
2015,08,14,14,32,19.30
2015,08,14,14,33,22.50
2015,08,14,14,34,27.40
2015,08,14,14,35,25.70
2015,08,14,14,36,20.90
2015,08,14,14,37,22.50
2015,08,14,14,38,20.90
2015,08,14,14,39,27.40
2015,08,14,14,40,24.20
2015,08,14,14,41,24.20
2015,08,14,14,42,24.20
2015,08,14,14,43,19.30
2015,08,14,14,44,20.90
2015,08,14,14,45,32.20
2015,08,14,14,46,24.20
2015,08,14,14,47,14.50
2015,08,14,14,48,17.70
2015,08,14,14,49,14.50
2015,08,14,14,50,14.50
2015,08,14,14,51,22.50
2015,08,14,14,52,14.50
2015,08,14,14,53,20.90
2015,08,14,14,54,25.70
2015,08,14,14,55,20.90
2015,08,14,14,56,22.50
2015,08,14,14,57,25.70
2015,08,14,14,58,24.20
2015,08,14,14,59,33.80
2015,08,14,15,00,29.00
2015,08,14,15,01,22.50
2015,08,14,15,02,27.40
2015,08,14,15,03,17.70
2015,08,14,15,04,25.70
2015,08,14,15,05,20.90
2015,08,14,15,06,20.90
2015,08,14,15,07,25.70
2015,08,14,15,08,27.40
2015,08,14,15,09,22.50
2015,08,14,15,10,20.90
2015,08,14,15,11,24.20
2015,08,14,15,12,27.40
2015,08,14,15,13,22.50
2015,08,14,15,14,30.60
2015,08,14,15,15,24.20
2015,08,14,15,16,14.50
2015,08,14,15,17,17.70
2015,08,14,15,18,19.30
2015,08,14,15,19,19.30
2015,08,14,15,20,25.70
2015,08,14,15,21,20.90
2015,08,14,15,22,32.20
2015,08,14,15,23,24.20
2015,08,14,15,24,27.40
2015,08,14,15,25,19.30
2015,08,14,15,26,29.00
2015,08,14,15,27,24.20
2015,08,14,15,28,25.70
2015,08,14,15,29,24.20
2015,08,14,15,30,27.40
2015,08,14,15,31,20.90
2015,08,14,15,32,20.90
2015,08,14,15,33,25.70
2015,08,14,15,34,24.20
2015,08,14,15,35,25.70
2015,08,14,15,36,22.50
2015,08,14,15,37,37.00
2015,08,14,15,38,27.40
2015,08,14,15,39,33.80
2015,08,14,15,40,33.80
2015,08,14,15,41,27.40
2015,08,14,15,42,29.00
2015,08,14,15,43,37.00
2015,08,14,15,44,32.20
2015,08,14,15,45,25.70
2015,08,14,15,46,24.20
2015,08,14,15,47,29.00
2015,08,14,15,48,24.20
2015,08,14,15,49,19.30
2015,08,14,15,50,17.70
2015,08,14,15,51,22.50
2015,08,14,15,52,17.70
2015,08,14,15,53,16.10
2015,08,14,15,54,25.70
2015,08,14,15,55,22.50
2015,08,14,15,56,24.20
2015,08,14,15,57,17.70
2015,08,14,15,58,27.40
2015,08,14,15,59,22.50
2015,08,14,16,00,19.30
2015,08,14,16,01,9.60
2015,08,14,16,02,20.90
2015,08,14,16,03,19.30
2015,08,14,16,04,24.20
2015,08,14,16,05,11.30
2015,08,14,16,06,22.50
2015,08,14,16,07,16.10
2015,08,14,16,08,17.70
2015,08,14,16,09,11.30
2015,08,14,16,10,14.50
2015,08,14,16,11,11.30
2015,08,14,16,12,14.50
2015,08,14,16,13,22.50
2015,08,14,16,14,19.30
2015,08,14,16,15,24.20
2015,08,14,16,16,19.30
2015,08,14,16,17,14.50
2015,08,14,16,18,9.60
2015,08,14,16,19,8.10
2015,08,14,16,20,19.30
2015,08,14,16,21,20.90
2015,08,14,16,22,11.30
2015,08,14,16,23,22.50
2015,08,14,16,24,24.20
2015,08,14,16,25,11.30
2015,08,14,16,26,9.60
2015,08,14,16,27,11.30
2015,08,14,16,28,11.30
2015,08,14,16,29,20.90
2015,08,14,16,30,22.50
2015,08,14,16,31,11.30
2015,08,14,16,32,19.30
2015,08,14,16,33,27.40
2015,08,14,16,34,19.30
2015,08,14,16,35,14.50
2015,08,14,16,36,14.50
2015,08,14,16,37,14.50
2015,08,14,16,38,20.90
2015,08,14,16,39,17.70
2015,08,14,16,40,16.10
2015,08,14,16,41,12.90
2015,08,14,16,42,19.30
2015,08,14,16,43,14.50
2015,08,14,16,44,17.70
2015,08,14,16,45,12.90
2015,08,14,16,46,22.50
2015,08,14,16,47,16.10
2015,08,14,16,48,11.30
2015,08,14,16,49,22.50
2015,08,14,16,50,20.90
2015,08,14,16,51,17.70
2015,08,14,16,52,19.30
2015,08,14,16,53,19.30
2015,08,14,16,54,22.50
2015,08,14,16,55,11.30
2015,08,14,16,56,24.20
2015,08,14,16,57,20.90
2015,08,14,16,58,22.50
2015,08,14,16,59,20.90
2015,08,14,17,00,19.30
2015,08,14,17,01,12.90
2015,08,14,17,02,14.50
2015,08,14,17,03,14.50
2015,08,14,17,04,16.10
2015,08,14,17,05,14.50
2015,08,14,17,06,25.70
2015,08,14,17,07,24.20
2015,08,14,17,08,19.30
2015,08,14,17,09,19.30
2015,08,14,17,10,12.90
2015,08,14,17,11,14.50
2015,08,14,17,12,22.50
2015,08,14,17,13,25.70
2015,08,14,17,14,24.20
2015,08,14,17,15,22.50
2015,08,14,17,16,22.50
2015,08,14,17,17,16.10
2015,08,14,17,18,32.20
2015,08,14,17,19,33.80
2015,08,14,17,20,27.40
2015,08,14,17,21,29.00
2015,08,14,17,22,16.10
2015,08,14,17,23,27.40
2015,08,14,17,24,27.40
2015,08,14,17,25,35.40
2015,08,14,17,26,32.20
2015,08,14,17,27,25.70
2015,08,14,17,28,27.40
2015,08,14,17,29,25.70
2015,08,14,17,30,30.60
2015,08,14,17,31,22.50
2015,08,14,17,32,25.70
2015,08,14,17,33,32.20
2015,08,14,17,34,19.30
2015,08,14,17,35,16.10
2015,08,14,17,36,24.20
2015,08,14,17,37,17.70
2015,08,14,17,38,20.90
2015,08,14,17,39,20.90
2015,08,14,17,40,33.80
2015,08,14,17,41,22.50
2015,08,14,17,42,17.70
2015,08,14,17,43,11.30
2015,08,14,17,44,22.50
2015,08,14,17,45,32.20
2015,08,14,17,46,20.90
2015,08,14,17,47,30.60
2015,08,14,17,48,27.40
2015,08,14,17,49,25.70
2015,08,14,17,50,29.00
2015,08,14,17,51,29.00
2015,08,14,17,52,22.50
2015,08,14,17,53,24.20
2015,08,14,17,54,22.50
2015,08,14,17,55,30.60
2015,08,14,17,56,29.00
2015,08,14,17,57,25.70
2015,08,14,17,58,25.70
2015,08,14,17,59,22.50
2015,08,14,18,00,27.40
2015,08,14,18,01,24.20
2015,08,14,18,02,25.70
2015,08,14,18,03,20.90
2015,08,14,18,04,17.70
2015,08,14,18,05,32.20
2015,08,14,18,06,25.70
2015,08,14,18,07,24.20
2015,08,14,18,08,29.00
2015,08,14,18,09,30.60
2015,08,14,18,10,30.60
2015,08,14,18,11,27.40
2015,08,14,18,12,20.90
2015,08,14,18,13,30.60
2015,08,14,18,14,27.40
2015,08,14,18,15,22.50
2015,08,14,18,16,16.10
2015,08,14,18,17,24.20
2015,08,14,18,18,17.70
2015,08,14,18,19,24.20
2015,08,14,18,20,24.20
2015,08,14,18,21,27.40
2015,08,14,18,22,27.40
2015,08,14,18,23,19.30
2015,08,14,18,24,30.60
2015,08,14,18,25,27.40
2015,08,14,18,26,32.20
2015,08,14,18,27,29.00
2015,08,14,18,28,25.70
2015,08,14,18,29,25.70
2015,08,14,18,30,25.70
2015,08,14,18,31,20.90
2015,08,14,18,32,19.30
2015,08,14,18,33,32.20
2015,08,14,18,34,27.40
2015,08,14,18,35,22.50
2015,08,14,18,36,27.40
2015,08,14,18,37,29.00
2015,08,14,18,38,22.50
2015,08,14,18,39,29.00
2015,08,14,18,40,25.70
2015,08,14,18,41,32.20
2015,08,14,18,42,33.80
2015,08,14,18,43,33.80
2015,08,14,18,44,32.20
2015,08,14,18,45,37.00
2015,08,14,18,46,29.00
2015,08,14,18,47,29.00
2015,08,14,18,48,25.70
2015,08,14,18,49,27.40
2015,08,14,18,50,20.90
2015,08,14,18,51,25.70
2015,08,14,18,52,33.80
2015,08,14,18,53,33.80
2015,08,14,18,54,29.00
2015,08,14,18,55,29.00
2015,08,14,18,56,30.60
2015,08,14,18,57,35.40
2015,08,14,18,58,35.40
2015,08,14,18,59,32.20
2015,08,14,19,00,30.60
2015,08,14,19,01,27.40
2015,08,14,19,02,32.20
2015,08,14,19,03,32.20
2015,08,14,19,04,25.70
2015,08,14,19,05,29.00
2015,08,14,19,06,29.00
2015,08,14,19,07,41.80
2015,08,14,19,08,35.40
2015,08,14,19,09,27.40
2015,08,14,19,10,25.70
2015,08,14,19,11,25.70
2015,08,14,19,12,27.40
2015,08,14,19,13,24.20
2015,08,14,19,14,29.00
2015,08,14,19,15,24.20
2015,08,14,19,16,27.40
2015,08,14,19,17,35.40
2015,08,14,19,18,27.40
2015,08,14,19,19,27.40
2015,08,14,19,20,25.70
2015,08,14,19,21,29.00
2015,08,14,19,22,24.20
2015,08,14,19,23,27.40
2015,08,14,19,24,38.60
2015,08,14,19,25,32.20
2015,08,14,19,26,38.60
2015,08,14,19,27,24.20
2015,08,14,19,28,27.40
2015,08,14,19,29,32.20
2015,08,14,19,30,27.40
2015,08,14,19,31,20.90
2015,08,14,19,32,35.40
2015,08,14,19,33,33.80
2015,08,14,19,34,30.60
2015,08,14,19,35,32.20
2015,08,14,19,36,43.50
2015,08,14,19,37,33.80
2015,08,14,19,38,29.00
2015,08,14,19,39,30.60
2015,08,14,19,40,27.40
2015,08,14,19,41,29.00
2015,08,14,19,42,32.20
2015,08,14,19,43,30.60
2015,08,14,19,44,32.20
2015,08,14,19,45,37.00
2015,08,14,19,46,33.80
2015,08,14,19,47,38.60
2015,08,14,19,48,27.40
2015,08,14,19,49,32.20
2015,08,14,19,50,40.20
2015,08,14,19,51,37.00
2015,08,14,19,52,41.80
2015,08,14,19,53,37.00
2015,08,14,19,54,25.70
2015,08,14,19,55,33.80
2015,08,14,19,56,35.40
2015,08,14,19,57,40.20
2015,08,14,19,58,37.00
2015,08,14,19,59,41.80
2015,08,14,20,00,33.80
2015,08,14,20,01,27.40
2015,08,14,20,02,27.40
2015,08,14,20,03,35.40
2015,08,14,20,04,30.60
2015,08,14,20,05,41.80
2015,08,14,20,06,32.20
2015,08,14,20,07,32.20
2015,08,14,20,08,32.20
2015,08,14,20,09,32.20
2015,08,14,20,10,33.80
2015,08,14,20,11,35.40
2015,08,14,20,12,24.20
2015,08,14,20,13,29.00
2015,08,14,20,14,30.60
2015,08,14,20,15,29.00
2015,08,14,20,16,33.80
2015,08,14,20,17,37.00
2015,08,14,20,18,29.00
2015,08,14,20,19,27.40
2015,08,14,20,20,33.80
2015,08,14,20,21,41.80
2015,08,14,20,22,40.20
2015,08,14,20,23,33.80
2015,08,14,20,24,35.40
2015,08,14,20,25,53.10
2015,08,14,20,26,35.40
2015,08,14,20,27,33.80
2015,08,14,20,28,43.50
2015,08,14,20,29,30.60
2015,08,14,20,30,45.10
2015,08,14,20,31,41.80
2015,08,14,20,32,56.30
2015,08,14,20,33,35.40
2015,08,14,20,34,41.80
2015,08,14,20,35,32.20
2015,08,14,20,36,38.60
2015,08,14,20,37,24.20
2015,08,14,20,38,24.20
2015,08,14,20,39,30.60
2015,08,14,20,40,29.00
2015,08,14,20,41,35.40
2015,08,14,20,42,27.40
2015,08,14,20,43,22.50
2015,08,14,20,44,37.00
2015,08,14,20,45,33.80
2015,08,14,20,46,32.20
2015,08,14,20,47,24.20
2015,08,14,20,48,25.70
2015,08,14,20,49,33.80
2015,08,14,20,50,20.90
2015,08,14,20,51,35.40
2015,08,14,20,52,27.40
2015,08,14,20,53,24.20
2015,08,14,20,54,24.20
2015,08,14,20,55,22.50
2015,08,14,20,56,32.20
2015,08,14,20,57,35.40
2015,08,14,20,58,29.00
2015,08,14,20,59,24.20
2015,08,14,21,00,38.60
2015,08,14,21,01,27.40
2015,08,14,21,02,32.20
2015,08,14,21,03,17.70
2015,08,14,21,04,25.70
2015,08,14,21,05,35.40
2015,08,14,21,06,29.00
2015,08,14,21,07,30.60
2015,08,14,21,08,22.50
2015,08,14,21,09,14.50
2015,08,14,21,10,27.40
2015,08,14,21,11,22.50
2015,08,14,21,12,25.70
2015,08,14,21,13,30.60
2015,08,14,21,14,25.70
2015,08,14,21,15,30.60
2015,08,14,21,16,35.40
2015,08,14,21,17,27.40
2015,08,14,21,18,20.90
2015,08,14,21,19,22.50
2015,08,14,21,20,17.70
2015,08,14,21,21,11.30
2015,08,14,21,22,17.70
2015,08,14,21,23,25.70
2015,08,14,21,24,16.10
2015,08,14,21,25,14.50
2015,08,14,21,26,14.50
2015,08,14,21,27,30.60
2015,08,14,21,28,17.70
2015,08,14,21,29,16.10
2015,08,14,21,30,12.90
2015,08,14,21,31,8.10
2015,08,14,21,32,29.00
2015,08,14,21,33,11.30
2015,08,14,21,34,11.30
2015,08,14,21,35,9.60
2015,08,14,21,36,14.50
2015,08,14,21,37,14.50
2015,08,14,21,38,11.30
2015,08,14,21,39,16.10
2015,08,14,21,40,11.30
2015,08,14,21,41,20.90
2015,08,14,21,42,19.30
2015,08,14,21,43,19.30
2015,08,14,21,44,16.10
2015,08,14,21,45,11.30
2015,08,14,21,46,17.70
2015,08,14,21,47,22.50
2015,08,14,21,48,14.50
2015,08,14,21,49,11.30
2015,08,14,21,50,11.30
2015,08,14,21,51,9.60
2015,08,14,21,52,16.10
2015,08,14,21,53,14.50
2015,08,14,21,54,9.60
2015,08,14,21,55,38.60
2015,08,14,21,56,17.70
2015,08,14,21,57,17.70
2015,08,14,21,58,19.30
2015,08,14,21,59,14.50
2015,08,14,22,00,11.30
2015,08,14,22,01,12.90
2015,08,14,22,02,12.90
2015,08,14,22,03,12.90
2015,08,14,22,04,17.70
2015,08,14,22,05,12.90
2015,08,14,22,06,17.70
2015,08,14,22,07,11.30
2015,08,14,22,08,4.80
2015,08,14,22,09,11.30
2015,08,14,22,10,6.40
2015,08,14,22,11,4.80
2015,08,14,22,12,16.10
2015,08,14,22,13,16.10
2015,08,14,22,14,9.60
2015,08,14,22,15,6.40
2015,08,14,22,16,6.40
2015,08,14,22,17,25.70
2015,08,14,22,18,17.70
2015,08,14,22,19,14.50
2015,08,14,22,20,11.30
2015,08,14,22,21,9.60
2015,08,14,22,22,6.40
2015,08,14,22,23,20.90
2015,08,14,22,24,6.40
2015,08,14,22,25,17.70
2015,08,14,22,26,16.10
2015,08,14,22,27,11.30
2015,08,14,22,28,11.30
2015,08,14,22,29,8.10
2015,08,14,22,30,6.40
2015,08,14,22,31,6.40
2015,08,14,22,32,12.90
2015,08,14,22,33,16.10
2015,08,14,22,34,11.30
2015,08,14,22,35,16.10
2015,08,14,22,36,8.10
2015,08,14,22,37,19.30
2015,08,14,22,38,19.30
2015,08,14,22,39,17.70
2015,08,14,22,40,19.30
2015,08,14,22,41,9.60
2015,08,14,22,42,9.60
2015,08,14,22,43,16.10
2015,08,14,22,44,14.50
2015,08,14,22,45,12.90
2015,08,14,22,46,24.20
2015,08,14,22,47,20.90
2015,08,14,22,48,14.50
2015,08,14,22,49,9.60
2015,08,14,22,50,20.90
2015,08,14,22,51,16.10
2015,08,14,22,52,9.60
2015,08,14,22,53,14.50
2015,08,14,22,54,19.30
2015,08,14,22,55,9.60
2015,08,14,22,56,20.90
2015,08,14,22,57,17.70
2015,08,14,22,58,22.50
2015,08,14,22,59,30.60
2015,08,14,23,00,16.10
2015,08,14,23,01,19.30
2015,08,14,23,02,25.70
2015,08,14,23,03,12.90
2015,08,14,23,04,22.50
2015,08,14,23,05,20.90
2015,08,14,23,06,20.90
2015,08,14,23,07,24.20
2015,08,14,23,08,16.10
2015,08,14,23,09,25.70
2015,08,14,23,10,14.50
2015,08,14,23,11,20.90
2015,08,14,23,12,14.50
2015,08,14,23,13,20.90
2015,08,14,23,14,19.30
2015,08,14,23,15,20.90
2015,08,14,23,16,22.50
2015,08,14,23,17,22.50
2015,08,14,23,18,16.10
2015,08,14,23,19,19.30
2015,08,14,23,20,19.30
2015,08,14,23,21,19.30
2015,08,14,23,22,11.30